Zurück zum Katalog

STARLINK-33793

AktivKommunikationSSO
NORAD 64165·PAYLOAD·🇺🇸 United States

Gestartet May 27, 2025 von Vandenberg Space Force Base

Loading…

Nächste Überflüge (nächste 24 Stunden)

TLE

AktuellSource: CelesTrak SupGP

Epoche: Sep 15, 2026, 03:36 UTC

1 64165C 25112V   26258.15048611 -.00025521  00000+0 -79203-3 0  2580
2 64165  97.2834 305.3329 0000926  97.8027 149.9640 15.33460440    16

Verfolge STARLINK-33793 in Echtzeit mit AllMySat

Download on the App Store